Back to catalog

STARLINK-4040

AliveCommunicationsVLEO
NORAD 53151·PAYLOAD·🇺🇸 United States

Launched Jul 17, 2022 from Cape Canaveral Space Force Station

Loading…

Next Passes (next 24 hours)

TLE

FreshSource: CelesTrak SupGP

Epoch: Sep 14, 2026, 13:06 UTC

1 53151C 22083V   26257.54631944 -.00031675  00000+0 -90634-3 0  2573
2 53151  53.1596  24.6684 0001266  79.7981 328.7407 15.35411336    16

Track STARLINK-4040 in real time with AllMySat

Download on the App Store